[Date Prev][Date Next][Thread Prev][Thread Next] - [Date Index][Thread Index][Author Index]
2 Line ISS Keps 3-8
- Subject: [sarex] 2 Line ISS Keps 3-8
- From: "Dave Larsen Ph.D." <doc@xxxxxxxxxxx>
- Date: Sat, 8 Mar 2003 05:44:43 -0800
ISS
1 25544U 98067A 03067.14657969 .00033286 00000-0 41697-3 0 7588
2 25544 51.6369 167.7238 0011753 290.4277 139.2611 15.59376620245248
----
Via the sarex mailing list at AMSAT.ORG courtesy of AMSAT-NA.
To unsubscribe, send "unsubscribe sarex" to Majordomo@amsat.org
AMSAT Home